KEAMOKU RAWS NEAR CAPTAIN COOK 12E HADS current weather conditions

sailwx.info

Wind from 010 at 10 knots gusting 19

Air temperature 21.1° C
Dewpoint 13.3° C

Last reported at 2017-Aug-24 01:34 UTC.
Time now 2017-Aug-24 02:48 UTC

Location: N 19°28' W 155°22'.
View on Google Maps.

See reports from other nearby stations

  
Tides and Currents Weather Stations Pressure Air Temp Water Temp Dewpoint Dewpoint Depression Visibility Wind Speed Wind Dir Waves Ship Positions
date/time (UTC)wind fromknots sea level pressurealtimeterstation pressurevisibilityair tempwater tempwave heightnotes
2017-Aug-24 01:34 010 10 gusting 19 21.1
2017-Aug-24 00:34 047 7 gusting 17 23.9
2017-Aug-23 23:34 192 6 gusting 15 28.3
2017-Aug-23 22:34 356 8 gusting 19 26.1
2017-Aug-23 21:34 016 9 gusting 18 23.3
2017-Aug-23 20:34 012 6 gusting 18 24.4
2017-Aug-23 19:34 005 8 gusting 14 22.8
2017-Aug-23 18:34 351 7 gusting 16 19.4
2017-Aug-23 17:34 342 6 gusting 13 16.1
2017-Aug-23 16:34 235 2 gusting 8 11.1
2017-Aug-23 15:34 339 1 gusting 4 7.8
2017-Aug-23 14:34 238 2 gusting 6 9.4
2017-Aug-23 13:34 209 2 gusting 10 11.7
2017-Aug-23 12:34 006 7 gusting 11 11.7
2017-Aug-23 11:34 326 6 gusting 12 15.0
2017-Aug-23 10:34 303 6 gusting 12 14.4
2017-Aug-23 09:34 299 6 gusting 12 14.4
2017-Aug-23 08:34 311 5 gusting 12 16.1
2017-Aug-23 07:34 312 5 gusting 11 16.7
2017-Aug-23 06:34 307 6 gusting 11 16.1
2017-Aug-23 05:34 335 5 gusting 8 17.2
2017-Aug-23 04:34 338 2 gusting 8 18.9
2017-Aug-23 03:34 052 2 gusting 8 21.7
2017-Aug-23 02:34 122 2 gusting 12 22.8
2017-Aug-23 01:34 345 5 gusting 13 25.0
2017-Aug-23 00:34 009 8 gusting 15 23.9
2017-Aug-22 23:34 024 6 gusting 13 22.8
2017-Aug-22 22:34 013 5 gusting 13 21.1
2017-Aug-22 21:34 332 3 gusting 15 17.8
2017-Aug-22 20:34 329 9 gusting 17 16.7
2017-Aug-22 19:34 350 4 gusting 15 18.3
2017-Aug-22 18:34 323 5 gusting 18 16.7
2017-Aug-22 17:34 317 2 gusting 6 17.2
2017-Aug-22 16:34 310 4 gusting 8 14.4
2017-Aug-22 15:34 311 4 gusting 11 13.3
2017-Aug-22 14:34 304 5 gusting 9 12.8
2017-Aug-22 13:34 311 5 gusting 10 13.3
2017-Aug-22 12:34 312 6 gusting 11 13.9
2017-Aug-22 11:34 322 6 gusting 10 14.4
2017-Aug-22 10:34 311 4 gusting 6 12.8
2017-Aug-22 09:34 330 4 gusting 7 13.9
2017-Aug-22 08:34 351 2 gusting 7 13.9
2017-Aug-22 07:34 318 3 gusting 6 13.9
2017-Aug-22 06:34 013 2 gusting 8 15.6
2017-Aug-22 05:34 341 2 gusting 4 14.4
2017-Aug-22 04:34 015 1 gusting 7 16.7
2017-Aug-22 03:34 025 4 gusting 9 18.9
2017-Aug-22 02:34 011 5 gusting 10 17.8